Weather History for Annette Island, AK

Change the Weather History Date:

Friday, December 28, 2012

  Actual Average Record
Temperature  
Mean Temperature 37 °F 37 °F  
Max Temperature 39 °F 41 °F 53 °F (2005)
Min Temperature 35 °F 32 °F 5 °F (1968)
Degree Days  
Heating Degree Days 28 28  
Month to date heating degree days 839 777  
Since 1 July heating degree days 2969 2827  
Cooling Degree Days 0    
Month to date cooling degree days 0  
Year to date cooling degree days 7  
Moisture  
Dew Point 35 °F    
Average Humidity 0    
Maximum Humidity 0    
Minimum Humidity 0    
Precipitation  
Precipitation 0.14 in 0.33 in 2.14 in (1958)
Month to date precipitation 8.03 9.71  
Year to date precipitation 103.14 100.62  
Snow  
Snow 0.00 in 0.30 in 8.70 in (2006)
Month to date snowfall 11.4 7.2  
Since 1 July snowfall 11.4 10.8  
Snow Depth 1.00 in    
Sea Level Pressure  
Sea Level Pressure 29.95 in    
Wind  
Wind Speed 7 mph (SE)    
Max Wind Speed 14 mph    
Max Gust Speed 20 mph    
Visibility 9 miles    
Events Rain    
T = Trace of Precipitation, MM = Missing Value Source: NWS Daily Summary

Daily Weather History Graph

Daily Weather History Graph

Search for Another Location

Airport:

Trip Planner

Search our weather history database for the weather conditions in past years. The results will help you decide how hot, cold, wet, or windy it might be!

Date:

Astronomy

Dec. 28, 2012 Rise Set
Actual Time 8:11 AM AKST 3:24 PM AKST
Civil Twilight 7:26 AM AKST 4:10 PM AKST
Nautical Twilight 6:38 AM AKST 4:57 PM AKST
Astronomical Twilight 5:54 AM AKST 5:42 PM AKST
Moon 4:20 PM AKST (12/28) 8:00 AM AKST (12/28)
Length of Visible Light 8h 43m
Length of Day
7h 13m
Full, 100% of the Moon is Illuminated
Dec 28
Full
Jan 4
Last Quarter
Jan 11
New
Jan 18
First Quarter
Jan 26
Full

Hourly Weather History & Observations

Time (AKST) Temp. Windchill Dew Point Humidity Pressure Visibility Wind Dir Wind Speed Gust Speed Precip Events Conditions
12:53 AM 37.0 °F 30.4 °F 35.1 °F 93% 29.83 in 10.0 mi SE 9.2 mph - 0.00 in   Overcast
1:53 AM 37.0 °F 29.3 °F 34.0 °F 89% 29.84 in 10.0 mi SE 11.5 mph 17.3 mph 0.01 in   Overcast
3:53 AM 37.9 °F 30.9 °F 34.0 °F 86% 29.84 in 10.0 mi ESE 10.4 mph - 0.00 in Rain Light Rain
4:53 AM 37.0 °F 31.0 °F 35.1 °F 93% 29.85 in 9.0 mi SE 8.1 mph - 0.05 in Rain Light Rain
5:03 AM 37.4 °F 30.3 °F 35.6 °F 93% 29.84 in 10.0 mi SE 10.4 mph - 0.00 in   Overcast
5:42 AM 37.4 °F 30.8 °F 33.8 °F 87% 29.85 in 10.0 mi SE 9.2 mph - 0.00 in   Overcast
5:53 AM 37.0 °F 31.0 °F 34.0 °F 89% 29.85 in 10.0 mi SE 8.1 mph 17.3 mph 0.00 in   Overcast
6:53 AM 37.0 °F 30.4 °F 34.0 °F 89% 29.86 in 10.0 mi SE 9.2 mph - N/A   Overcast
7:53 AM 37.0 °F 32.4 °F 35.1 °F 93% 29.88 in 10.0 mi SE 5.8 mph - 0.00 in   Overcast
8:49 AM 37.4 °F 31.4 °F 35.6 °F 93% 29.89 in 9.0 mi SE 8.1 mph - 0.02 in Rain Light Rain
8:53 AM 37.0 °F 29.8 °F 35.1 °F 93% 29.90 in 8.0 mi SE 10.4 mph - 0.03 in Rain Rain
9:17 AM 37.4 °F 29.8 °F 35.6 °F 93% 29.90 in 10.0 mi SE 11.5 mph - 0.01 in   Overcast
9:42 AM 37.4 °F 31.4 °F 33.8 °F 87% 29.91 in 10.0 mi SE 8.1 mph - 0.01 in Rain Rain
9:53 AM 37.0 °F 31.0 °F 34.0 °F 89% 29.92 in 8.0 mi SE 8.1 mph - 0.01 in Rain Rain
10:53 AM 37.0 °F 31.6 °F 35.1 °F 93% 29.93 in 10.0 mi SE 6.9 mph - 0.00 in Rain Rain
11:51 AM 37.4 °F 31.4 °F 35.6 °F 93% 29.94 in 10.0 mi SE 8.1 mph - 0.00 in Rain Rain
11:53 AM 37.9 °F 32.1 °F 35.1 °F 89% 29.94 in 10.0 mi SE 8.1 mph - 0.00 in Rain Rain
12:53 PM 37.9 °F 31.5 °F 36.0 °F 93% 29.97 in 10.0 mi SE 9.2 mph - 0.00 in Rain Rain
1:53 PM 37.9 °F 30.9 °F 35.1 °F 89% 29.98 in 10.0 mi SE 10.4 mph - 0.00 in Rain Rain
2:53 PM 37.9 °F 32.7 °F 35.1 °F 89% 29.99 in 10.0 mi SE 6.9 mph - 0.02 in Rain Light Rain
3:18 PM 37.4 °F 32.8 °F 35.6 °F 93% 29.99 in 10.0 mi SE 5.8 mph - 0.01 in Rain Light Rain
3:44 PM 37.4 °F 31.4 °F 35.6 °F 93% 29.99 in 10.0 mi SE 8.1 mph - 0.01 in Rain Light Rain
3:53 PM 37.9 °F 32.1 °F 36.0 °F 93% 29.99 in 10.0 mi SE 8.1 mph - 0.02 in Rain Light Rain
4:53 PM 37.9 °F 34.4 °F 36.0 °F 93% 30.01 in 10.0 mi ESE 4.6 mph - 0.00 in   Overcast
5:53 PM 37.9 °F 35.5 °F 36.0 °F 93% 30.02 in 10.0 mi SE 3.5 mph - N/A   Overcast
6:21 PM 37.4 °F 33.8 °F 37.4 °F 100% 30.02 in 10.0 mi SE 4.6 mph - N/A   Overcast
6:53 PM 37.9 °F 34.4 °F 37.0 °F 97% 30.04 in 10.0 mi SE 4.6 mph - N/A   Overcast
7:53 PM 37.0 °F - 36.0 °F 96% 30.05 in 10.0 mi Calm Calm - N/A   Overcast
8:53 PM 37.0 °F - 36.0 °F 96% 30.07 in 10.0 mi Calm Calm - N/A   Overcast
9:53 PM 37.0 °F - 36.0 °F 96% 30.10 in 4.0 mi Calm Calm - N/A   Overcast
10:53 PM 36.0 °F - 35.1 °F 97% 30.12 in 4.0 mi Calm Calm - N/A   Overcast
11:53 PM 37.0 °F 34.5 °F 36.0 °F 96% 30.13 in 10.0 mi ESE 3.5 mph - N/A   Overcast